Colorado City, AZ

12:37 AM MST on September 21, 2019 (GMT -0700)
Colorado City Municipal

Weather History for KAZC - August, 2019

Change the Weather History Date:

Sunday, August 25, 2019

  Actual Average (WUND) Record (WUND)
Temperature  
Mean Temperature 76 °F -  
Max Temperature 96 °F - - (-1)
Min Temperature 55 °F - - (-1)
Cooling Degree Days 10    
Growing Degree Days 26 (Base 50)    
Moisture  
Dew Point 43 °F    
Average Humidity 34    
Maximum Humidity 63    
Minimum Humidity 15    
Precipitation  
Precipitation 0.00 in - - ()
Sea Level Pressure  
Sea Level Pressure 30.17 in    
Wind  
Wind Speed 4 mph (WNW)    
Max Wind Speed 15 mph    
Max Gust Speed 23 mph    
Visibility 10 miles    
Events      
Averages and records for this station are not official NWS values.
T = Trace of Precipitation, MM = Missing Value Source: NWS Daily Summary

Daily Weather History Graph

Daily Weather History Graph

Search for Another Location

Airport or City:

Astronomy

Aug. 25, 2019 Rise Set
Actual Time 5:57 AM MST 7:10 PM MST
Civil Twilight 5:30 AM MST 7:37 PM MST
Nautical Twilight 4:57 AM MST 8:09 PM MST
Astronomical Twilight 4:24 AM MST 8:43 PM MST
Moon 12:39 AM MST (8/25) 3:30 PM MST (8/25)
Length of Visible Light 14h 07m
Length of Day
13h 13m
Waning Crescent, 28% of the Moon is Illuminated
Aug 25
Waning Crescent
Aug 30
New
Sep 5
First Quarter
Sep 13
Full
Sep 21
Last Quarter

Hourly Weather History & Observations

Time (MST) Temp. Heat Index Dew Point Humidity Pressure Visibility Wind Dir Wind Speed Gust Speed Precip Events Conditions
12:15 AM 60.8 °F - 35.6 °F 39% 30.18 in 10.0 mi SSE 5.8 mph - N/A   Clear
12:35 AM 60.8 °F - 37.4 °F 42% 30.19 in 10.0 mi NE 4.6 mph - N/A   Clear
12:55 AM 59.0 °F - 37.4 °F 45% 30.19 in - Calm Calm - N/A   Clear
1:15 AM 60.8 °F - 37.4 °F 42% 30.19 in - Calm Calm - N/A   Clear
1:35 AM 59.0 °F - 37.4 °F 45% 30.19 in - Calm Calm - N/A   Clear
1:55 AM 59.0 °F - 37.4 °F 45% 30.19 in - Calm Calm - N/A   Clear
2:15 AM 59.0 °F - 39.2 °F 48% 30.19 in - Calm Calm - N/A   Clear
2:35 AM 60.8 °F - 37.4 °F 42% 30.19 in - Calm Calm - N/A   Clear
2:55 AM 59.0 °F - 37.4 °F 45% 30.19 in - South 4.6 mph - N/A   Clear
3:15 AM 59.0 °F - 39.2 °F 48% 30.19 in - Calm Calm - N/A   Clear
3:35 AM 59.0 °F - 39.2 °F 48% 30.19 in - Calm Calm - N/A   Clear
3:55 AM 57.2 °F - 41.0 °F 55% 30.20 in - Calm Calm - N/A   Clear
4:15 AM 55.4 °F - 41.0 °F 58% 30.20 in - SSE 3.5 mph - N/A   Clear
4:35 AM 55.4 °F - 41.0 °F 58% 30.20 in - Calm Calm - N/A   Clear
4:55 AM 55.4 °F - 41.0 °F 58% 30.20 in - SE 3.5 mph - N/A   Clear
5:15 AM 55.4 °F - 41.0 °F 58% 30.20 in - East 3.5 mph - N/A   Clear
5:35 AM 55.4 °F - 42.8 °F 63% 30.21 in - Calm Calm - N/A   Clear
5:55 AM 55.4 °F - 42.8 °F 63% 30.21 in 10.0 mi Calm Calm - N/A   Clear
6:15 AM 57.2 °F - 44.6 °F 63% 30.22 in 10.0 mi Calm Calm - N/A   Clear
6:35 AM 57.2 °F - 44.6 °F 63% 30.22 in 10.0 mi Calm Calm - N/A   Clear
6:55 AM 60.8 °F - 46.4 °F 59% 30.23 in 10.0 mi Calm Calm - N/A   Clear
7:15 AM 64.4 °F - 48.2 °F 56% 30.23 in 10.0 mi Calm Calm - N/A   Clear
7:35 AM 69.8 °F - 50.0 °F 49% 30.23 in 10.0 mi Calm Calm - N/A   Clear
7:55 AM 73.4 °F - 53.6 °F 50% 30.23 in 10.0 mi Calm Calm - N/A   Clear
8:15 AM 77.0 °F - 53.6 °F 44% 30.23 in 10.0 mi Calm Calm - N/A   Clear
8:35 AM 78.8 °F - 53.6 °F 42% 30.23 in 10.0 mi Calm Calm - N/A   Clear
8:55 AM 82.4 °F 81.4 °F 53.6 °F 37% 30.23 in 10.0 mi Calm Calm - N/A   Clear
9:15 AM 84.2 °F 82.8 °F 53.6 °F 35% 30.23 in 10.0 mi West 3.5 mph - N/A   Clear
9:35 AM 84.2 °F - 51.8 °F 33% 30.23 in 10.0 mi NNE 3.5 mph - N/A   Clear
9:55 AM 86.0 °F - 51.8 °F 31% 30.23 in 10.0 mi WNW 4.6 mph - N/A   Clear
10:15 AM 87.8 °F - 50.0 °F 27% 30.22 in 10.0 mi West 6.9 mph 16.1 mph N/A   Clear
10:35 AM 89.6 °F - 48.2 °F 24% 30.22 in 10.0 mi NW 10.4 mph - N/A   Clear
10:55 AM 89.6 °F - 44.6 °F 21% 30.22 in 10.0 mi WNW 8.1 mph - N/A   Clear
11:15 AM 89.6 °F - 44.6 °F 21% 30.21 in 10.0 mi WNW 11.5 mph 17.3 mph N/A   Clear
11:35 AM 91.4 °F - 44.6 °F 20% 30.20 in 10.0 mi West 6.9 mph 18.4 mph N/A   Clear
11:55 AM 91.4 °F - 44.6 °F 20% 30.20 in 10.0 mi WNW 10.4 mph 19.6 mph N/A   Clear
12:15 PM 91.4 °F - 44.6 °F 20% 30.20 in 10.0 mi WNW 9.2 mph 20.7 mph N/A   Clear
12:35 PM 93.2 °F - 42.8 °F 17% 30.19 in 10.0 mi WNW 11.5 mph 20.7 mph N/A   Clear
12:55 PM 93.2 °F - 41.0 °F 16% 30.18 in 10.0 mi WNW 9.2 mph 19.6 mph N/A   Clear
1:15 PM 93.2 °F - 41.0 °F 16% 30.17 in 10.0 mi NW 9.2 mph 18.4 mph N/A   Clear
1:35 PM 95.0 °F - 42.8 °F 16% 30.17 in 10.0 mi West 10.4 mph 17.3 mph N/A   Clear
1:55 PM 95.0 °F - 41.0 °F 15% 30.16 in 10.0 mi NW 10.4 mph 19.6 mph N/A   Clear
2:15 PM 95.0 °F - 41.0 °F 15% 30.15 in 10.0 mi West 10.4 mph 17.3 mph N/A   Clear
2:35 PM 95.0 °F - 41.0 °F 15% 30.14 in 10.0 mi West 11.5 mph 16.1 mph N/A   Clear
2:55 PM 96.8 °F - 41.0 °F 15% 30.13 in 10.0 mi West 13.8 mph 18.4 mph N/A   Clear
3:15 PM 96.8 °F - 41.0 °F 15% 30.13 in 10.0 mi NNW 10.4 mph 17.3 mph N/A   Clear
3:35 PM 96.8 °F - 41.0 °F 15% 30.12 in 10.0 mi West 12.7 mph - N/A   Clear
3:55 PM 95.0 °F - 42.8 °F 16% 30.12 in 10.0 mi West 9.2 mph - N/A   Clear
4:15 PM 95.0 °F - 46.4 °F 19% 30.11 in 10.0 mi West 8.1 mph 21.9 mph N/A   Clear
4:35 PM 95.0 °F - 46.4 °F 19% 30.11 in 10.0 mi NW 12.7 mph 23.0 mph N/A   Clear
4:55 PM 95.0 °F - 44.6 °F 18% 30.11 in 10.0 mi West 13.8 mph 20.7 mph N/A   Clear
5:15 PM 95.0 °F - 46.4 °F 19% 30.10 in 10.0 mi NW 15.0 mph 19.6 mph N/A   Clear
5:35 PM 95.0 °F - 44.6 °F 18% 30.11 in 10.0 mi WNW 11.5 mph 19.6 mph N/A   Clear
5:55 PM 93.2 °F - 44.6 °F 19% 30.11 in 10.0 mi WNW 10.4 mph - N/A   Clear
6:15 PM 91.4 °F - 42.8 °F 18% 30.10 in 10.0 mi WNW 10.4 mph - N/A   Clear
6:35 PM 89.6 °F - 42.8 °F 20% 30.11 in 10.0 mi West 10.4 mph - N/A   Clear
6:55 PM 89.6 °F - 42.8 °F 20% 30.11 in 10.0 mi WNW 9.2 mph - N/A   Clear
7:15 PM 87.8 °F - 41.0 °F 19% 30.11 in 10.0 mi WNW 6.9 mph - N/A   Clear
7:35 PM 84.2 °F - 41.0 °F 22% 30.12 in 10.0 mi WNW 5.8 mph - N/A   Clear
7:55 PM 84.2 °F - 41.0 °F 22% 30.12 in - WNW 4.6 mph - N/A   Clear
8:15 PM 78.8 °F - 41.0 °F 26% 30.13 in 10.0 mi Calm Calm - N/A   Clear
8:35 PM 75.2 °F - 42.8 °F 31% 30.13 in 10.0 mi Calm Calm - N/A   Clear
8:55 PM 71.6 °F - 41.0 °F 33% 30.13 in 10.0 mi NNE 3.5 mph - N/A   Clear
9:15 PM 69.8 °F - 41.0 °F 35% 30.13 in 10.0 mi Calm Calm - N/A   Clear
9:35 PM 69.8 °F - 42.8 °F 38% 30.14 in 10.0 mi Calm Calm - N/A   Clear
9:55 PM 69.8 °F - 41.0 °F 35% 30.14 in 10.0 mi SE 4.6 mph - N/A   Clear
10:15 PM 68.0 °F - 41.0 °F 37% 30.13 in 10.0 mi ESE 6.9 mph - N/A   Clear
10:35 PM 69.8 °F - 39.2 °F 33% 30.13 in - ESE 8.1 mph - N/A   Clear
10:55 PM 68.0 °F - 39.2 °F 35% 30.13 in - ESE 6.9 mph - N/A   Clear
11:35 PM 62.6 °F - 39.2 °F 42% 30.13 in - SSE 5.8 mph - N/A   Clear
11:55 PM 62.6 °F - 37.4 °F 39% 30.13 in - SSE 6.9 mph - N/A   Clear